Regional Weather Roundup
Issued by NWS

Home | Current Version | Previous Version | Text Only | Print | Product List | Glossary On
Versions: 1 2 3 4 5 6 7 8 9 10 11 12 13 14 15 16 17 18 19 20 21 22 23 24 25 26 27 28 29 30 31 32 33 34 35 36 37 38 39 40 41 42 43 44 45 46 47 48 49 50
141
ASUS43 KTOP 241608
RWRKS

WEATHER ROUNDUP FOR KANSAS
NATIONAL WEATHER SERVICE GOODLAND KS
1100 AM CDT SUN JUL 24 2016

NOTE:  "FAIR" INDICATES FEW OR NO CLOUDS BELOW 12,000 FEET WITH NO
SIGNIFICANT WEATHER AND/OR OBSTRUCTIONS TO VISIBILITY.

KSZ001>006-013>018-027>032-041>047-241700-
NORTHWEST KANSAS

CITY           SKY/WX    TMP DP  RH WIND       PRES   REMARKS
GOODLAND       SUNNY     82  61  48 E12       30.11R
HAYS           CLOUDY    82  63  51 E9        30.00R
HILL CITY      LGT RAIN  74  67  78 E14       29.99F
RUSSELL        CLOUDY    85  68  56 E8        29.97R
$$

KSZ061>065-074>080-084>089-241700-
SOUTHWEST KANSAS

CITY           SKY/WX    TMP DP  RH WIND       PRES   REMARKS
DODGE CITY     CLOUDY    83  66  56 CALM      30.00S
ELKHART          N/A     84  63  49 N6          N/A
GARDEN CITY    SUNNY     86  67  52 E7        30.01S
GREAT BEND     CLOUDY    82  64  54 CALM      29.97S
LIBERAL        CLOUDY    84  63  48 NE7       30.05R
PRATT          CLOUDY    84  67  56 SW8       29.97S
$$

KSZ066>073-081>083-090>101-241700-
SOUTHEAST KANSAS

CITY           SKY/WX    TMP DP  RH WIND       PRES   REMARKS
CHANUTE        SUNNY     89  75  63 SW10      29.96R HX  99
COFFEYVILLE    SUNNY     92  74  55 S9        29.96S HX 101
HUTCHINSON     MOSUNNY   91  68  46 S8        29.94F HX  95
MEDICINE LODGE   N/A     93  64  38 SW9       29.93F
NEWTON         MOSUNNY   92  70  48 SW10      29.96F HX  97
PARSONS        SUNNY     90  75  61 S8        29.97S HX 100
WICHITA INTL   MOSUNNY   95  67  39 SW10      29.94S HX  99
WICHITA JABRA  MOSUNNY   89  71  55 S8        29.95R HX  95
WICHITA MCCONL SUNNY     91  70  49 SW10      29.96R HX  97
WINFIELD       SUNNY     93  69  45 SW12      29.97R HX  98
$$

KSZ007>012-019>026-033>040-048>060-102>105-241700-
NORTHEAST KANSAS

CITY           SKY/WX    TMP DP  RH WIND       PRES   REMARKS
CONCORDIA      MOSUNNY   77  72  84 W5        29.97R
EMPORIA        CLOUDY    89  71  55 SW6       29.95R HX  95
LAWRENCE       MOSUNNY   91  74  57 VRB3      29.92S HX 100
MANHATTAN      PTSUNNY   82  72  71 SW7       29.92R
MARYSVILLE     CLOUDY    86  72  62 N7        29.95R
OLATHE IND     SUNNY     90  72  55 VRB6      29.95R HX  97
OLATHE EXE     SUNNY     89  72  56 NW7       29.95R HX  96
SALINA         CLOUDY    86  71  60 S8        29.94S
TOPEKA BILLARD PTSUNNY   90  73  57 NE3       29.92R HX  98
TOPEKA FORBES  PTSUNNY   90  74  59 S5        29.93R HX  99
$$




USA.gov is the U.S. government's official web portal to all federal, state and local government web resources and services.